shoulder
new_line
new_line
first
second
third
Al di la della Luna; Beyond the Moon; Astrophotography; Astrofotografia; Danilo Pivato
 
 
         
         
2010

Orbital Elements

Epoch 2009 Oct. 16.0 TT = JDT 2455120.5
T 2009 Oct. 7.26490 TT                                                            MPC
q   2.2516893             (2000.0)                       P                      Q
z  -0.0001156      Peri.    2.09036         -0.86793557      -0.17825933
 +/-0.0000001      Node   149.41282     +0.44145240     -0.70460899
e   1.0002602      Incl.   65.65050     +0.22761287     +0.68684043                        
 
         
         
2010.05.09
2010.03.17
2010.04.10
2010.04.17
2010.04.18
         
2010.05.09
2010.05.21
         
       
       
         
         
         

 

       
 
Since: 01/01/2004
 
       
 
Since: 01/11/2010